Location: Kermapucano
(48.0667°N, 3.3000°W)
Time: 19:42:32
(UTC+00:00)

Cosmos 2154 Rocket - Pass Details

Date: 29 November 2020
Orbit: 965 x 997 km, 82.9° (Epoch: 27 January)

Event Time Altitude Azimuth Distance (km) Brightness Sun altitude
Rises 06:53:28 0° 211° (SSW) 3,652 6.9 -7.7°
Reaches altitude 10° 06:56:07 10° 219° (SW) 2,713 6.2 -7.3°
Maximum altitude 07:01:56 40° 288° (WNW) 1,400 4.4 -6.4°
Drops below altitude 10° 07:07:50 10° 357° (N) 2,749 6.1 -5.5°
Sets 07:10:33 0° 5° (N) 3,707 6.8 -5.1°
